TimeEDT,TemperatureF,Dew PointF,Humidity,Sea Level PressureIn,VisibilityMPH,Wind Direction,Wind SpeedMPH,Gust SpeedMPH,PrecipitationIn,Events,Conditions,WindDirDegrees,DateUTC
12:15 AM,46.4,35.6,66,30.18,10.0,Calm,Calm,-,N/A,,Clear,0,2013-05-07 04:15:00
12:35 AM,46.4,37.4,71,30.18,10.0,Calm,Calm,-,N/A,,Clear,0,2013-05-07 04:35:00
12:55 AM,44.6,35.6,71,30.18,10.0,Calm,Calm,-,N/A,,Clear,0,2013-05-07 04:55:00
1:15 AM,44.6,37.4,76,30.18,10.0,Calm,Calm,-,N/A,,Clear,0,2013-05-07 05:15:00
1:35 AM,44.6,37.4,76,30.18,10.0,Calm,Calm,-,N/A,,Clear,0,2013-05-07 05:35:00
1:55 AM,44.6,37.4,76,30.17,10.0,Calm,Calm,-,N/A,,Clear,0,2013-05-07 05:55:00
2:15 AM,42.8,37.4,81,30.17,10.0,Calm,Calm,-,N/A,,Clear,0,2013-05-07 06:15:00
2:35 AM,42.8,35.6,76,30.17,10.0,Calm,Calm,-,N/A,,Clear,0,2013-05-07 06:35:00
2:55 AM,42.8,35.6,76,30.17,10.0,Calm,Calm,-,N/A,,Clear,0,2013-05-07 06:55:00
3:15 AM,42.8,37.4,81,30.17,10.0,Calm,Calm,-,N/A,,Clear,0,2013-05-07 07:15:00
3:35 AM,42.8,37.4,81,30.17,10.0,Calm,Calm,-,N/A,,Clear,0,2013-05-07 07:35:00
3:55 AM,41.0,35.6,81,30.18,10.0,Calm,Calm,-,N/A,,Clear,0,2013-05-07 07:55:00
4:15 AM,39.2,35.6,87,30.18,10.0,Calm,Calm,-,N/A,,Clear,0,2013-05-07 08:15:00
4:35 AM,39.2,35.6,87,30.17,10.0,Calm,Calm,-,N/A,,Clear,0,2013-05-07 08:35:00
4:56 AM,39.2,35.6,87,30.17,6.0,Calm,Calm,-,N/A,,Clear,0,2013-05-07 08:56:00
5:15 AM,39.2,35.6,87,30.18,1.0,Calm,Calm,-,N/A,,Clear,0,2013-05-07 09:15:00
5:35 AM,39.2,35.6,87,30.18,8.0,SSW,3.5,-,N/A,,Clear,200,2013-05-07 09:35:00
6:15 AM,39.2,35.6,87,30.19,2.0,Calm,Calm,-,N/A,,Clear,0,2013-05-07 10:15:00
6:35 AM,39.2,35.6,87,30.19,9.0,Calm,Calm,-,N/A,,Clear,0,2013-05-07 10:35:00
6:55 AM,42.8,37.4,81,30.19,10.0,Calm,Calm,-,N/A,,Clear,0,2013-05-07 10:55:00
7:15 AM,44.6,39.2,81,30.19,10.0,Calm,Calm,-,N/A,,Clear,0,2013-05-07 11:15:00
7:35 AM,46.4,41.0,81,30.19,10.0,Calm,Calm,-,N/A,,Clear,0,2013-05-07 11:35:00
7:55 AM,48.2,42.8,82,30.19,10.0,Calm,Calm,-,N/A,,Clear,0,2013-05-07 11:55:00
8:15 AM,51.8,44.6,76,30.20,10.0,Calm,Calm,-,N/A,,Clear,0,2013-05-07 12:15:00
8:35 AM,53.6,46.4,77,30.19,10.0,Calm,Calm,-,N/A,,Clear,0,2013-05-07 12:35:00
8:55 AM,57.2,46.4,67,30.19,10.0,Calm,Calm,-,N/A,,Clear,0,2013-05-07 12:55:00
9:15 AM,59.0,46.4,63,30.18,10.0,Calm,Calm,-,N/A,,Clear,0,2013-05-07 13:15:00
9:35 AM,60.8,48.2,63,30.18,10.0,Calm,Calm,-,N/A,,Clear,0,2013-05-07 13:35:00
9:55 AM,64.4,48.2,56,30.18,10.0,Calm,Calm,-,N/A,,Clear,0,2013-05-07 13:55:00
10:15 AM,64.4,48.2,56,30.17,10.0,Calm,Calm,-,N/A,,Clear,0,2013-05-07 14:15:00
10:35 AM,66.2,48.2,52,30.17,10.0,Calm,Calm,-,N/A,,Clear,0,2013-05-07 14:35:00
10:55 AM,69.8,48.2,46,30.17,9.0,Calm,Calm,-,N/A,,Clear,0,2013-05-07 14:55:00
11:15 AM,71.6,46.4,41,30.16,10.0,Calm,Calm,-,N/A,,Clear,0,2013-05-07 15:15:00
11:55 AM,73.4,44.6,36,30.15,10.0,Calm,Calm,-,N/A,,Clear,0,2013-05-07 15:55:00
12:15 PM,75.2,39.2,27,30.14,10.0,Calm,Calm,-,N/A,,Clear,0,2013-05-07 16:15:00
12:35 PM,75.2,42.8,31,30.13,10.0,South,8.1,-,N/A,,Clear,190,2013-05-07 16:35:00
12:55 PM,75.2,42.8,31,30.13,10.0,South,5.8,-,N/A,,Clear,190,2013-05-07 16:55:00
1:15 PM,77.0,39.2,26,30.12,10.0,WSW,6.9,-,N/A,,Clear,240,2013-05-07 17:15:00
1:55 PM,78.8,37.4,23,30.11,10.0,SSW,9.2,-,N/A,,Clear,210,2013-05-07 17:55:00
2:35 PM,78.8,37.4,23,30.10,10.0,WSW,6.9,-,N/A,,Clear,240,2013-05-07 18:35:00
2:55 PM,80.6,39.2,23,30.09,10.0,SSW,8.1,17.3,N/A,,Clear,200,2013-05-07 18:55:00
3:35 PM,78.8,37.4,23,30.08,10.0,SW,8.1,-,N/A,,Clear,230,2013-05-07 19:35:00
3:55 PM,78.8,35.6,21,30.08,10.0,South,5.8,-,N/A,,Clear,190,2013-05-07 19:55:00
4:15 PM,80.6,35.6,20,30.08,10.0,South,9.2,-,N/A,,Clear,180,2013-05-07 20:15:00
4:35 PM,78.8,33.8,20,30.07,10.0,West,8.1,-,N/A,,Clear,260,2013-05-07 20:35:00
4:55 PM,80.6,30.2,16,30.07,10.0,South,8.1,-,N/A,,Clear,190,2013-05-07 20:55:00
5:15 PM,80.6,28.4,15,30.07,10.0,SSW,13.8,17.3,N/A,,Clear,210,2013-05-07 21:15:00
5:35 PM,80.6,28.4,15,30.07,10.0,SSW,6.9,-,N/A,,Clear,210,2013-05-07 21:35:00
5:55 PM,78.8,35.6,21,30.07,10.0,South,8.1,-,N/A,,Clear,190,2013-05-07 21:55:00
6:15 PM,78.8,39.2,24,30.07,10.0,South,9.2,-,N/A,,Partly Cloudy,190,2013-05-07 22:15:00
6:35 PM,78.8,39.2,24,30.08,10.0,SW,9.2,-,N/A,,Scattered Clouds,220,2013-05-07 22:35:00
6:55 PM,78.8,42.8,28,30.08,10.0,SSW,10.4,-,N/A,,Scattered Clouds,210,2013-05-07 22:55:00
7:35 PM,73.4,44.6,36,30.10,10.0,SSW,6.9,-,N/A,,Clear,200,2013-05-07 23:35:00
7:55 PM,71.6,44.6,38,30.10,10.0,South,6.9,-,N/A,,Clear,170,2013-05-07 23:55:00
8:15 PM,69.8,46.4,43,30.11,10.0,SSE,4.6,-,N/A,,Clear,150,2013-05-08 00:15:00
8:35 PM,69.8,50.0,49,30.13,10.0,South,9.2,-,N/A,,Clear,180,2013-05-08 00:35:00
8:55 PM,69.8,51.8,53,30.13,10.0,South,8.1,-,N/A,,Clear,180,2013-05-08 00:55:00
9:15 PM,66.2,51.8,60,30.14,10.0,South,4.6,-,N/A,,Clear,190,2013-05-08 01:15:00
9:35 PM,64.4,51.8,64,30.15,10.0,Calm,Calm,-,N/A,,Clear,0,2013-05-08 01:35:00
9:55 PM,64.4,51.8,64,30.16,10.0,Calm,Calm,-,N/A,,Clear,0,2013-05-08 01:55:00
10:35 PM,60.8,50.0,68,30.16,10.0,Calm,Calm,-,N/A,,Clear,0,2013-05-08 02:35:00
10:55 PM,59.0,50.0,72,30.17,10.0,Calm,Calm,-,N/A,,Clear,0,2013-05-08 02:55:00
11:15 PM,57.2,50.0,77,30.17,10.0,SSW,5.8,-,N/A,,Clear,200,2013-05-08 03:15:00
11:35 PM,57.2,50.0,77,30.18,10.0,SSW,4.6,-,N/A,,Clear,200,2013-05-08 03:35:00
11:55 PM,55.4,48.2,77,30.18,10.0,Calm,Calm,-,N/A,,Clear,0,2013-05-08 03:55:00